Location: Pel�-Koumbol�
(14.9505°N, 3.0798°W)
Time: 14:22:53
(UTC+00:00)

NATO 3D Rocket - Pass Details

Date: 17 February 2020
Orbit: 670 x 2296 km, 21.5° (Epoch: 29 March)

Event Time Altitude Azimuth Distance (km) Brightness Sun altitude
Exits shadow 06:10:21 - 271° (W) 2,508 5.5 -6.9°
Reaches altitude 10° 06:10:56 10° 272° (W) 2,282 5.3 -6.8°
Maximum altitude 06:15:55 51° 349° (NNW) 846 3.6 -5.6°
Drops below altitude 10° 06:20:29 10° 66° (ENE) 2,087 6.7 -4.5°
Sets 06:22:55 0° 71° (ENE) 3,046 7.8 -3.9°
